Regional Weather Roundup
Issued by NWS

Home | Current Version | Previous Version | Text Only | Print | Product List | Glossary On
Versions: 1 2 3 4 5 6 7 8 9 10 11 12 13 14 15 16 17 18 19 20 21 22 23 24 25 26 27 28 29 30 31 32 33 34 35 36 37 38 39 40 41 42 43 44 45 46 47 48 49 50
000
ASUS43 KDTX 230210
RWRMI
MICHIGAN HOURLY REGIONAL WEATHER ROUNDUP
NATIONAL WEATHER SERVICE DETROIT/PONTIAC MI
1000 PM EDT FRI AUG 22 2014

NOTE: "FAIR" INDICATES FEW OR NO CLOUDS BELOW 12,000 FEET WITH NO
SIGNIFICANT WEATHER AND/OR OBSTRUCTION TO VISIBILITY.

MIZ047>049-052>055-059>063-066>070-074>076-081>083-230300-
SOUTHEAST LOWER MICHIGAN

CITY           SKY/WX    TMP DP  RH WIND       PRES   REMARKS
ADRIAN         MOCLDY    74  71  91 CALM      30.01R
ALMA           CLOUDY    69  63  80 CALM      30.03S
ANN ARBOR      CLOUDY    76  68  76 E5        30.01R
BAD AXE        PTCLDY    62  62 100 CALM      30.05S
CARO           CLOUDY    68  64  85 E3        30.03S
DETROIT CITY   MOCLDY    75  60  59 N6        30.01R
DETROIT        MOCLDY    75  62  64 MISG      30.01R
FLINT          CLEAR     75  66  73 NE9       30.02R
GROSSE ILE     CLEAR     73  66  78 NE5       30.00R
HILLSDALE      MOCLDY    74  74  99 CALM      30.01S
HOWELL         CLOUDY    72  67  85 NE3       30.02R

CITY           SKY/WX    TMP DP  RH WIND       PRES   REMARKS
JACKSON        PTCLDY    74  71  91 CALM      30.00R
LAMBERTVILLE   PTCLDY    73  70  88 CALM      30.00R FOG
LANSING        CLOUDY    73  68  84 NE7       30.02R
LAPEER         CLOUDY    67  63  85 CALM      30.03S
MASON          CLOUDY    73  69  86 NE3       30.01R
MONROE         MOCLDY    73  70  88 NE5       29.99R
MT. CLEMENS    MOCLDY    68  60  77 N5        30.01R
PONTIAC        CLOUDY    71  63  75 E7        30.02R
PORT HOPE        N/A     65  62  90 NE6       30.04R
PORT HURON     CLOUDY    64  63  94 NE5       30.02S
TRI CITIES     MOCLDY    69  65  86 NE7       30.03S
TROY           CLOUDY    73  63  70 NE6       30.04R
SAGINAW HB     PTCLDY    68  68 100 CALM      30.02S
$$
MIZ043>046-050>051-056>058-064>065-071>073-077>080-230300-
SOUTHWEST LOWER MICHIGAN

CITY           SKY/WX    TMP DP  RH WIND       PRES   REMARKS
BATTLE CREEK   PTCLDY    77  71  82 CALM      30.00S
BENTON HARBOR  PTCLDY    74  72  93 CALM      29.97S
BIG RAPIDS     CLEAR     69  67  96 E6        30.02R
COLDWATER      CLOUDY    76  73  90 CALM      30.00R
FREMONT        FAIR      73  70  88 E5        30.00R
HOLLAND        CLEAR     75  72  90 E3        29.99R FOG
GRAND RAPIDS   CLEAR     74  74 100 E6        30.00R
IONIA          MOCLDY    72  68  88 NE6       30.01R
KALAMAZOO      MOCLDY    77  71  82 CALM      29.99S
LUDINGTON      CLEAR     72  70  93 CALM      30.01R
MARSHALL       CLOUDY    73  71  96 CALM      29.99S
MOUNT PLEASANT CLEAR     67  62  82 CALM      30.03R
MUSKEGON       MOCLDY    76  72  87 NE3       29.99R
SOUTH HAVEN    CLOUDY    75  74  97 CALM      29.98R
$$
MIZ016>042-230300-
NORTHERN LOWER MICHIGAN

CITY           SKY/WX    TMP DP  RH WIND       PRES   REMARKS
ALPENA         FOG       63  63 100 SE3       30.06S VSB 1/4
BEAVER ISLAND  PTCLDY    69  65  86 E6        30.03S
BELLAIRE       PTCLDY    70  67  91 CALM      30.02R
CADILLAC       PTCLDY    70  67  91 E3        30.04R
CHARLEVOIX     CLOUDY    74  68  81 E7        30.05S
FRANKFORT      MOCLDY    71  67  87 CALM      30.00S
GAYLORD        CLOUDY    71  63  75 VRB5      30.06R
GRAYLING       MOCLDY    71  68  88 E3        30.06R
HARBOR SPRINGS CLOUDY    72  64  76 E6        30.03S
HOUGHTON LAKE  CLOUDY    70  65  84 SE3       30.06R
MANISTEE       PTCLDY    70  66  88 CALM      30.01R
OSCODA         CLOUDY    63  63  99 NE3       30.04S FOG
PELLSTON       CLOUDY    70  65  84 CALM      30.05R
ROGERS CITY    CLOUDY    69  65  89 SE5       30.06S
TRAVERSE CITY  MOCLDY    71  67  87 CALM      30.00R
$$
MIZ007>008-015-230300-
EASTERN UPPER MICHIGAN

CITY           SKY/WX    TMP DP  RH WIND       PRES   REMARKS
KINROSS        CLOUDY    68  64  88 SE5       30.06R
MACKINAC ISLAN CLOUDY    68  62  83 SE5       30.05R
NEWBERRY       MOCLDY    67  65  91 CALM      30.04R
S. S. MARIE    CLEAR     69  64  84 S3        30.05R
MUNISING         N/A     72  67  84 CALM      30.02R
$$
MIZ004>006-011>014-085-230300-
CENTRAL UPPER MICHIGAN

CITY           SKY/WX    TMP DP  RH WIND       PRES   REMARKS
MANISTIQUE     MOCLDY    67  64  88 E5        30.02S
ESCANABA       CLOUDY    70  64  83 E6        30.02R
MENOMINEE      PTCLDY    70  66  88 E5        30.00R
SAWYER-GWINN   CLOUDY    68  64  88 E5        30.04R
$$
MIZ001>003-009>011-084-230300-
WESTERN UPPER MICHIGAN

CITY           SKY/WX    TMP DP  RH WIND       PRES   REMARKS
IRON MOUNTAIN  CLOUDY    71  68  90 SE8       30.01R
HOUGHTON       MOCLDY    62  60  93 E6        30.03R
COPPER HARBOR    N/A     56  54  93 SE3       30.04R
IRONWOOD       CLOUDY    61  61 100 W6        30.02R VSB 1/2
$$

ABBREVIATIONS USED IN REMARKS
   TC - TEMPERATURE IN CELSIUS
  WCI - WIND CHILL INDEX
   HX - HEAT INDEX
  VSB - VISIBILITY



USA.gov is the U.S. government's official web portal to all federal, state and local government web resources and services.